N8VIM Weather Reports


time (UTC)temp
C
wind
direction
speed
KPH
gust
KPH
rain 1hr
cm
rain 24hr
cm
rain mn
cm
humidity
%
barometer
mb
20260903213220 25 0 0.0 0.0 361.92 0.00 0.30 76 1012.5
20260903212719 24 0 0.0 0.0 361.92 0.00 0.30 76 1012.5
20260903212219 24 0 0.0 0.0 361.92 0.00 0.30 77 1012.5
20260903211720 24 0 0.0 0.0 361.92 0.00 0.30 76 1012.5
20260903211219 24 0 0.0 0.0 361.92 0.00 0.30 76 1012.6
20260903210719 24 0 0.0 0.0 361.92 0.00 0.30 76 1012.7
20260903210220 24 0 0.0 0.0 361.92 0.00 0.30 75 1012.7
20260903205719 24 63 0.0 0.0 361.92 0.00 0.30 75 1012.6
20260903204721 24 0 0.0 0.0 361.92 0.00 0.30 75 1012.5
20260903204219 25 0 0.0 0.0 361.92 0.00 0.30 76 1012.6
20260903203719 25 0 0.0 0.0 361.92 0.00 0.30 75 1012.6
20260903203219 24 0 0.0 0.0 361.92 0.00 0.30 75 1012.7
20260903202719 25 0 0.0 0.0 361.92 0.00 0.30 75 1012.7
20260903201719 24 0 0.0 0.0 361.92 0.00 0.30 76 1012.7
20260903201219 23 0 0.0 0.0 361.92 0.00 0.30 77 1012.7
20260903200719 23 0 0.0 0.0 361.92 0.00 0.30 76 1012.7
20260903200222 23 0 0.0 0.0 361.92 0.00 0.30 75 1012.9
20260903195719 23 0 0.0 0.0 361.92 0.00 0.30 75 1012.9
20260903195219 23 0 0.0 0.0 361.92 0.00 0.30 75 1012.9
20260903194719 23 0 0.0 0.0 361.92 0.00 0.30 74 1013.0
20260903194219 23 62 0.0 3.2 361.92 0.00 0.30 75 1013.1
20260903193219 23 210 0.0 0.0 361.92 0.00 0.30 76 1013.2
20260903192719 23 231 0.0 1.6 361.92 0.00 0.30 75 1013.4
20260903191722 24 4 0.0 3.2 361.92 0.00 0.30 73 1013.4
20260903191219 24 34 0.0 3.2 361.92 0.00 0.30 72 1013.5
20260903190719 24 113 0.0 6.4 361.92 0.00 0.30 73 1013.4
20260903190219 23 32 3.2 3.2 361.92 0.00 0.30 75 1013.4
20260903184721 23 63 0.0 3.2 361.92 0.00 0.30 75 1013.5
20260903183719 23 98 0.0 1.6 361.92 0.00 0.30 75 1013.7
20260903183219 23 98 0.0 3.2 361.92 0.00 0.30 78 1013.7
20260903182719 23 48 0.0 4.8 361.92 0.00 0.30 78 1013.8
20260903181720 22 0 0.0 0.0 361.92 0.00 0.30 79 1013.7
20260903180719 22 148 3.2 4.8 361.92 0.00 0.30 79 1013.9
20260903180220 22 122 1.6 6.4 361.92 0.00 0.30 80 1014.0
20260903175734 22 110 3.2 3.2 361.92 0.00 0.30 83 1014.0
20260903175219 22 76 0.0 1.6 361.92 0.00 0.30 83 1013.9
20260903174719 21 0 0.0 0.0 361.92 0.00 0.30 83 1014.1
20260903173719 21 103 0.0 1.6 361.92 0.00 0.30 83 1014.3
20260903173219 21 0 0.0 0.0 361.92 0.00 0.30 83 1014.3
20260903172719 21 114 0.0 4.8 361.92 0.00 0.30 83 1014.3
20260903171719 21 32 1.6 1.6 361.92 0.00 0.30 84 1014.4
20260903170219 21 98 1.6 4.8 361.92 0.00 0.30 84 1014.3
20260903165719 21 132 0.0 1.6 361.92 0.00 0.30 84 1014.1
20260903164721 21 0 0.0 0.0 361.92 0.00 0.30 86 1014.1
20260903163719 21 134 0.0 1.6 361.92 0.00 0.30 87 1014.2
20260903163224 21 30 0.0 3.2 361.92 0.00 0.30 88 1014.1
20260903162722 20 158 0.0 6.4 361.92 0.00 0.30 89 1014.2
20260903161719 20 111 0.0 6.4 361.92 0.00 0.30 86 1014.3
20260903161218 20 0 0.0 0.0 361.92 0.00 0.30 88 1014.3
20260903160718 20 219 0.0 1.6 361.92 0.00 0.30 87 1014.3
20260903160219 20 307 0.0 3.2 361.92 0.00 0.30 89 1014.4
20260903155718 20 113 0.0 6.4 361.92 0.00 0.30 91 1014.4
20260903155218 20 63 0.0 3.2 361.92 0.00 0.30 92 1014.3
20260903154721 20 0 0.0 0.0 361.92 0.00 0.30 92 1014.3
20260903154218 20 62 0.0 3.2 361.92 0.00 0.30 92 1014.4
20260903153718 20 170 0.0 3.2 361.92 0.00 0.30 93 1014.5
20260903153224 19 0 0.0 0.0 361.92 0.00 0.30 94 1014.6
20260903152718 19 0 0.0 0.0 361.92 0.00 0.30 94 1014.6
20260903151719 19 0 0.0 0.0 361.92 0.00 0.30 95 1014.9
20260903151218 18 0 0.0 0.0 361.92 0.00 0.30 95 1015.0
20260903150719 18 0 0.0 0.0 361.92 0.00 0.30 95 1014.9
20260903150226 18 0 0.0 0.0 361.92 0.00 0.30 95 1015.0
20260903145718 18 0 0.0 0.0 361.92 0.00 0.30 95 1014.8
20260903145218 18 0 0.0 0.0 361.92 0.00 0.30 95 1014.9
20260903144719 18 0 0.0 0.0 361.92 0.00 0.30 94 1015.0
20260903144218 18 0 0.0 0.0 361.92 0.00 0.30 95 1015.1
20260903143718 18 0 0.0 0.0 361.92 0.00 0.30 95 1015.1
20260903143221 18 0 0.0 0.0 361.92 0.00 0.30 95 1015.1
20260903141719 18 0 0.0 0.0 361.92 0.00 0.30 96 1015.1
20260903141218 18 0 0.0 0.0 361.92 0.00 0.30 96 1015.1
20260903140226 17 0 0.0 0.0 361.92 0.00 0.30 96 1015.3
20260903135718 17 0 0.0 0.0 361.92 0.00 0.30 96 1015.4
20260903135218 17 0 0.0 0.0 361.92 0.00 0.30 96 1015.5
20260903134719 17 0 0.0 0.0 361.92 0.00 0.30 96 1015.7
20260903134218 17 0 0.0 0.0 361.92 0.00 0.30 96 1015.5
20260903133718 17 0 0.0 0.0 361.92 0.00 0.30 96 1015.5
20260903133219 17 0 0.0 0.0 361.92 0.00 0.30 96 1015.4
20260903132718 17 0 0.0 0.0 361.92 0.00 0.30 96 1015.5
20260903132218 17 0 0.0 0.0 361.92 0.00 0.30 96 1015.4
20260903131719 17 0 0.0 0.0 361.92 0.00 0.30 96 1015.4
20260903130718 17 0 0.0 0.0 361.92 0.00 0.30 96 1015.3
20260903125718 17 0 0.0 0.0 361.92 0.00 0.30 97 1015.4
20260903125218 17 0 0.0 0.0 361.92 0.00 0.30 97 1015.5
20260903124719 17 0 0.0 0.0 361.92 0.00 0.30 97 1015.5
20260903124218 17 0 0.0 0.0 361.92 0.00 0.30 97 1015.5
20260903123720 17 0 0.0 0.0 361.92 0.00 0.30 96 1015.7
20260903123219 17 0 0.0 0.0 361.92 0.00 0.30 96 1015.8
20260903122219 17 0 0.0 0.0 361.92 0.00 0.30 96 1016.2
20260903121719 17 0 0.0 0.0 361.92 0.00 0.30 96 1016.1
20260903121218 17 0 0.0 0.0 361.92 0.00 0.30 96 1016.1
20260903120718 17 0 0.0 0.0 361.92 0.00 0.30 96 1016.1
20260903120219 17 0 0.0 0.0 361.92 0.00 0.30 96 1016.0
20260903115722 17 0 0.0 0.0 361.92 0.00 0.30 96 1016.1
20260903115218 17 0 0.0 0.0 361.92 0.00 0.30 96 1016.1
20260903114719 17 0 0.0 0.0 361.92 0.00 0.30 96 1016.3
20260903113219 16 0 0.0 0.0 361.92 0.00 0.30 96 1016.3
20260903112718 16 0 0.0 0.0 361.92 0.00 0.30 96 1016.3
20260903112218 16 0 0.0 0.0 361.92 0.00 0.30 96 1016.4
20260903111719 16 0 0.0 0.0 361.92 0.00 0.30 96 1016.4
20260903111218 16 0 0.0 0.0 361.92 0.00 0.30 96 1016.3
20260903110718 16 0 0.0 0.0 361.92 0.00 0.30 96 1016.3
20260903110219 16 0 0.0 0.0 361.92 0.00 0.30 96 1016.2
20260903105718 16 0 0.0 0.0 361.92 0.00 0.30 96 1016.2
20260903105219 16 0 0.0 0.0 361.92 0.00 0.30 96 1016.3
20260903104218 16 0 0.0 0.0 361.92 0.00 0.30 96 1016.2
20260903103221 16 0 0.0 0.0 361.92 0.00 0.30 96 1016.3
20260903102718 16 0 0.0 0.0 361.92 0.00 0.30 96 1016.3
20260903101719 16 0 0.0 0.0 361.92 0.00 0.30 96 1016.3
20260903101218 16 0 0.0 0.0 361.92 0.00 0.30 95 1016.4
20260903100224 16 0 0.0 0.0 361.92 0.00 0.30 95 1016.3
20260903095718 16 0 0.0 0.0 361.92 0.00 0.30 95 1016.2
20260903095218 16 0 0.0 0.0 361.90 0.00 0.28 95 1016.2
20260903094719 16 0 0.0 0.0 361.90 0.00 0.28 93 1016.2
20260903094218 16 0 0.0 0.0 361.90 0.00 0.28 94 1016.3
20260903093718 16 0 0.0 0.0 361.90 0.00 0.28 94 1016.4
20260903093221 16 0 0.0 0.0 361.87 0.00 0.25 94 1016.4
20260903092718 16 0 0.0 0.0 361.87 0.00 0.25 94 1016.4
20260903092218 16 0 0.0 0.0 361.87 0.00 0.25 94 1016.4
20260903091719 16 0 0.0 0.0 361.85 0.00 0.23 93 1016.7
20260903090718 16 0 0.0 0.0 361.85 0.00 0.23 93 1016.8
20260903090221 17 184 0.0 3.2 361.80 0.00 0.18 92 1016.8
20260903085718 17 204 1.6 3.2 361.67 0.00 0.05 92 1016.8
20260903085218 17 101 0.0 1.6 361.67 0.00 0.05 91 1016.6
20260903084719 17 114 0.0 1.6 361.65 0.00 0.03 91 1016.7
20260903084218 17 248 0.0 1.6 361.65 0.00 0.03 91 1016.8
20260903083718 17 167 0.0 6.4 361.65 0.00 0.03 90 1016.7
20260903083218 17 30 3.2 1.6 361.65 0.00 0.03 90 1016.7
20260903082718 17 165 0.0 4.8 361.65 0.00 0.03 90 1016.6
20260903081718 17 266 0.0 3.2 361.65 0.00 0.03 89 1016.8
20260903081218 17 148 1.6 3.2 361.65 0.00 0.03 88 1017.0
20260903080223 17 293 0.0 3.2 361.65 0.00 0.03 87 1016.8
20260903074718 17 203 0.0 4.8 361.62 0.00 0.00 85 1017.0
20260903074218 17 174 3.2 4.8 361.62 0.00 0.00 85 1017.0
20260903073718 17 174 0.0 4.8 361.62 0.00 0.00 85 1016.9
20260903073218 17 134 3.2 3.2 361.62 0.00 0.00 85 1016.8
20260903072718 17 0 0.0 0.0 361.62 0.00 0.00 85 1017.0
20260903072218 17 0 0.0 0.0 361.62 0.00 0.00 85 1017.1
20260903071719 17 122 0.0 3.2 361.62 0.00 0.00 84 1017.1
20260903070219 17 0 0.0 0.0 361.62 0.00 0.00 84 1017.0
20260903064719 17 0 0.0 0.0 361.62 0.00 0.00 84 1017.4
20260903063718 17 0 0.0 0.0 361.62 0.00 0.00 83 1017.8
20260903063221 17 162 0.0 8.0 361.62 0.00 0.00 84 1017.9
20260903061722 17 0 0.0 0.0 361.62 0.00 0.00 84 1018.3
20260903060218 17 0 0.0 0.0 361.62 0.00 0.00 85 1018.6
20260903054722 17 239 0.0 1.6 361.62 0.00 0.00 85 1019.0
20260903054217 17 153 0.0 9.7 361.62 0.00 0.00 85 1019.0
20260903052717 17 193 0.0 4.8 361.62 0.00 0.00 85 1019.2
20260903052218 17 0 0.0 0.0 361.62 0.00 0.00 85 1019.1
20260903051718 17 110 0.0 3.2 361.62 0.00 0.00 85 1019.1
20260903051217 17 0 0.0 0.0 361.62 0.00 0.00 86 1019.1
20260903050220 17 179 0.0 3.2 361.62 0.00 0.00 85 1018.8
20260903045717 17 113 1.6 8.0 361.62 0.00 0.00 85 1018.8
20260903045217 17 0 0.0 0.0 361.62 0.00 0.00 85 1019.0
20260903044722 17 56 0.0 1.6 361.62 0.00 0.00 85 1019.0
20260903044217 17 0 0.0 0.0 361.62 0.00 0.00 85 1019.1
20260903043718 17 0 0.0 0.0 361.62 0.00 0.00 85 1019.4
20260903043218 17 0 0.0 0.0 361.62 0.00 0.00 85 1019.5
20260903042218 17 0 0.0 0.0 361.62 0.00 0.00 85 1019.5
20260903041718 17 0 0.0 0.0 361.62 0.00 0.00 84 1019.5
20260903041218 17 0 0.0 0.0 361.62 0.00 0.00 84 1019.7
20260903040219 17 0 0.0 0.0 361.62 0.00 0.00 84 1019.3
20260903034724 17 0 0.0 0.0 361.62 0.00 0.00 84 1019.5
20260903034217 17 0 0.0 0.0 361.62 0.00 0.00 84 1019.3
20260903033717 18 0 0.0 0.0 361.62 0.00 0.00 83 1019.3
20260903033218 18 0 0.0 0.0 361.62 0.00 0.00 83 1019.3
20260903031721 18 0 0.0 0.0 361.62 0.00 0.00 83 1019.8
20260903030221 18 0 0.0 0.0 361.62 0.00 0.00 83 1020.0
20260903024721 18 0 0.0 0.0 361.62 0.00 0.00 82 1020.2
20260903024217 18 120 0.0 3.2 361.62 0.00 0.00 82 1020.3
20260903023717 18 0 0.0 0.0 361.62 0.00 0.00 82 1020.3
20260903023218 18 0 0.0 0.0 361.62 0.00 0.00 82 1020.3
20260903022717 18 225 0.0 1.6 361.62 0.00 0.00 81 1020.3
20260903021718 18 0 0.0 0.0 361.62 0.00 0.00 81 1020.4
20260903021218 18 0 0.0 0.0 361.62 0.00 0.00 80 1020.4
20260903020218 18 6 0.0 1.6 361.62 0.00 0.00 80 1020.4
20260903015217 18 0 0.0 0.0 361.62 0.00 0.00 79 1020.4
20260903014720 18 190 0.0 4.8 361.62 0.00 0.00 80 1020.6
20260903013717 18 45 0.0 1.6 361.62 0.00 0.00 79 1020.7
20260903013218 18 122 0.0 4.8 361.62 0.00 0.00 78 1020.5
20260903011718 18 60 1.6 4.8 361.62 0.00 0.00 78 1020.0
20260903010717 18 73 1.6 4.8 361.62 0.00 0.00 77 1020.0
20260903010220 18 186 1.6 8.0 361.62 0.00 0.00 77 1020.1
20260903005717 18 152 1.6 11.3 361.62 0.00 0.00 77 1020.2
20260903004718 18 165 3.2 8.0 361.62 0.00 0.00 76 1020.3
20260903003717 18 4 0.0 9.7 361.62 0.00 0.00 76 1020.4
20260903003218 18 131 0.0 3.2 361.62 0.00 0.00 75 1020.4
20260903001720 18 249 3.2 4.8 361.62 0.00 0.00 74 1020.3
20260903001217 18 46 0.0 3.2 361.62 0.00 0.00 74 1020.4
20260903000717 18 73 0.0 1.6 361.62 0.00 0.00 74 1020.6
20260903000218 18 76 0.0 1.6 361.62 0.00 0.00 74 1020.5
20260902235717 18 0 0.0 0.0 361.62 0.00 0.00 74 1020.5
20260902235217 18 0 0.0 0.0 361.62 0.00 0.00 74 1020.7
20260902234724 18 103 0.0 1.6 361.62 0.00 0.00 74 1020.8
20260902234217 18 0 0.0 0.0 361.62 0.00 0.00 73 1020.9
20260902233717 18 0 0.0 0.0 361.62 0.00 0.00 73 1020.9
20260902233222 19 0 0.0 0.0 361.62 0.00 0.00 73 1021.0
20260902232217 19 0 0.0 0.0 361.62 0.00 0.00 71 1021.2
20260902231717 19 0 0.0 0.0 361.62 0.00 0.00 72 1021.2
20260902231217 20 0 0.0 0.0 361.62 0.00 0.00 72 1021.2
20260902230717 20 0 0.0 0.0 361.62 0.00 0.00 72 1021.4
20260902230218 20 0 0.0 0.0 361.62 0.00 0.00 70 1021.4
20260902225717 20 0 0.0 0.0 361.62 0.00 0.00 70 1021.4
20260902225217 20 0 0.0 0.0 361.62 0.00 0.00 69 1021.2
20260902224717 20 0 0.0 0.0 361.62 0.00 0.00 67 1021.2
20260902223717 21 0 0.0 0.0 361.62 0.00 0.00 68 1021.1
20260902223218 21 0 0.0 0.0 361.62 0.00 0.00 67 1021.2
20260902222717 21 0 0.0 0.0 361.62 0.00 0.00 65 1021.4
20260902222217 21 0 0.0 0.0 361.62 0.00 0.00 65 1021.5
20260902221717 21 0 0.0 0.0 361.62 0.00 0.00 66 1021.5
20260902220718 21 0 0.0 0.0 361.62 0.00 0.00 65 1021.7
20260902220220 21 0 0.0 0.0 361.62 0.00 0.00 63 1021.6
20260902215717 21 0 0.0 0.0 361.62 0.00 0.00 63 1021.5
20260902215217 21 28 0.0 3.2 361.62 0.00 0.00 62 1021.4
20260902214717 21 59 0.0 3.2 361.62 0.00 0.00 62 1021.3
20260902214217 21 37 0.0 0.0 361.62 0.00 0.00 61 1021.2
20260902213717 21 65 0.0 3.2 361.62 0.00 0.00 62 1021.2